DLH594 DNAA-DNPO

Flight info

Callsign DLH594
Flight time 0h 40m
Altitude 36000
Route IKVAD1S IKVAD DCT IVBUV UV456 BORMO
Aircraft A343/H-SDE2E3FGHIJ3J5M1P2RWXYZ/LB1D1

Departure

Time 2026-04-30 08:10
Airport Nnamdi Azikiwe International Airport (DNAA)

Arrival

Time 2026-04-30 08:51
Airport Port Harcourt International Airport (DNPO)
Time Latitude Longitude Altitude Speed Heading
2026-04-30 07:58 9.00708 7.26695 1127 ft 0 kts 180°
2026-04-30 08:03 9.00732 7.26696 1132 ft 4 kts 186°
2026-04-30 08:03 9.00783 7.26711 1135 ft 4 kts 224°
2026-04-30 08:03 9.00793 7.26728 1135 ft 0 kts 269°
2026-04-30 08:05 9.00793 7.26724 1135 ft 2 kts 269°
2026-04-30 08:06 9.00794 7.26704 1134 ft 3 kts 279°
2026-04-30 08:06 9.00810 7.26677 1135 ft 7 kts 310°
2026-04-30 08:06 9.00836 7.26671 1135 ft 4 kts 359°
2026-04-30 08:06 9.00876 7.26682 1132 ft 8 kts 29°
2026-04-30 08:07 9.00942 7.26729 1118 ft 17 kts 33°
2026-04-30 08:07 9.01068 7.26799 1120 ft 23 kts 29°
2026-04-30 08:07 9.01203 7.26891 1137 ft 25 kts 35°
2026-04-30 08:07 9.01360 7.27003 1135 ft 29 kts 35°
2026-04-30 08:08 9.01525 7.27119 1137 ft 29 kts 34°
2026-04-30 08:08 9.01696 7.27238 1136 ft 30 kts 34°
2026-04-30 08:08 9.01866 7.27352 1137 ft 26 kts 22°
2026-04-30 08:08 9.01937 7.27337 1138 ft 10 kts 324°
2026-04-30 08:09 9.01985 7.27263 1137 ft 12 kts 279°
2026-04-30 08:09 9.01945 7.27206 1137 ft 11 kts 212°
2026-04-30 08:09 9.01833 7.27132 1130 ft 43 kts 214°
2026-04-30 08:09 9.01399 7.26821 1137 ft 110 kts 215°
2026-04-30 08:10 9.00608 7.26263 1112 ft 165 kts 215°
2026-04-30 08:10 8.99577 7.25580 1578 ft 183 kts 212°
2026-04-30 08:10 8.98454 7.24883 2227 ft 194 kts 212°
2026-04-30 08:10 8.97203 7.24342 2948 ft 204 kts 189°
2026-04-30 08:11 8.95683 7.24237 3358 ft 237 kts 184°
2026-04-30 08:11 8.93960 7.24180 4111 ft 253 kts 183°
2026-04-30 08:11 8.92186 7.24111 5037 ft 263 kts 183°
2026-04-30 08:11 8.90301 7.24027 5963 ft 272 kts 182°
2026-04-30 08:12 8.88409 7.23938 6871 ft 279 kts 181°
2026-04-30 08:12 8.86418 7.23841 7774 ft 286 kts 181°
2026-04-30 08:12 8.84436 7.23743 8701 ft 292 kts 180°
2026-04-30 08:12 8.82384 7.23640 9636 ft 299 kts 180°
2026-04-30 08:13 8.80278 7.23534 10466 ft 309 kts 180°
2026-04-30 08:13 8.78055 7.23424 10902 ft 330 kts 180°
2026-04-30 08:13 8.75709 7.23306 11549 ft 342 kts 180°
2026-04-30 08:13 8.73301 7.23182 12354 ft 348 kts 180°
2026-04-30 08:14 8.70898 7.23058 13175 ft 352 kts 179°
2026-04-30 08:14 8.68430 7.22932 14000 ft 357 kts 179°
2026-04-30 08:14 8.65934 7.22802 14765 ft 360 kts 179°
2026-04-30 08:14 8.63423 7.22674 15518 ft 365 kts 179°
2026-04-30 08:15 8.60862 7.22544 16244 ft 370 kts 179°
2026-04-30 08:15 8.58277 7.22412 17083 ft 372 kts 179°
2026-04-30 08:15 8.55676 7.22280 17884 ft 375 kts 179°
2026-04-30 08:15 8.53058 7.22146 18607 ft 379 kts 179°
2026-04-30 08:16 8.50415 7.22012 19274 ft 383 kts 180°
2026-04-30 08:16 8.48644 7.21922 19724 ft 385 kts 180°
2026-04-30 08:16 8.45036 7.21737 20575 ft 390 kts 180°
2026-04-30 08:16 8.42350 7.21600 21213 ft 393 kts 180°
2026-04-30 08:17 8.39590 7.21459 21836 ft 397 kts 180°
2026-04-30 08:17 8.36814 7.21318 22458 ft 401 kts 180°
2026-04-30 08:17 8.34013 7.21175 23065 ft 404 kts 180°
2026-04-30 08:17 8.31190 7.21031 23651 ft 408 kts 181°
2026-04-30 08:18 8.29303 7.20935 23960 ft 411 kts 181°
2026-04-30 08:18 8.26433 7.20789 24411 ft 415 kts 180°
2026-04-30 08:18 8.23521 7.20641 24864 ft 420 kts 180°
2026-04-30 08:18 8.19626 7.20443 25471 ft 425 kts 180°
2026-04-30 08:19 8.16660 7.20288 25930 ft 429 kts 181°
2026-04-30 08:19 8.13662 7.20117 26380 ft 433 kts 181°
2026-04-30 08:19 8.11663 7.19999 26674 ft 436 kts 181°
2026-04-30 08:19 8.08624 7.19819 27106 ft 439 kts 181°
2026-04-30 08:20 8.05529 7.19636 27549 ft 443 kts 181°
2026-04-30 08:20 8.02437 7.19455 27972 ft 446 kts 181°
2026-04-30 08:20 7.99367 7.19277 28386 ft 450 kts 181°
2026-04-30 08:20 7.96226 7.19097 28787 ft 453 kts 181°
2026-04-30 08:21 7.93052 7.18916 29193 ft 457 kts 181°
2026-04-30 08:21 7.89864 7.18734 29586 ft 460 kts 181°
2026-04-30 08:21 7.86662 7.18551 30026 ft 462 kts 181°
2026-04-30 08:21 7.83436 7.18332 30361 ft 465 kts 183°
2026-04-30 08:22 7.80201 7.18021 30734 ft 467 kts 184°
2026-04-30 08:22 7.76959 7.17666 31102 ft 469 kts 184°
2026-04-30 08:22 7.73751 7.17307 31465 ft 470 kts 184°
2026-04-30 08:22 7.70492 7.16949 31825 ft 472 kts 184°
2026-04-30 08:23 7.67218 7.16601 32263 ft 471 kts 184°
2026-04-30 08:23 7.63967 7.16264 32773 ft 468 kts 184°
2026-04-30 08:23 7.60731 7.15936 33263 ft 466 kts 184°
2026-04-30 08:23 7.57514 7.15629 33736 ft 464 kts 183°
2026-04-30 08:24 7.54295 7.15342 34179 ft 462 kts 183°
2026-04-30 08:24 7.51106 7.15064 34527 ft 461 kts 183°
2026-04-30 08:24 7.47901 7.14787 34814 ft 462 kts 183°
2026-04-30 08:24 7.44698 7.14506 35152 ft 461 kts 183°
2026-04-30 08:25 7.41540 7.14228 35491 ft 460 kts 182°
2026-04-30 08:25 7.38315 7.13941 35852 ft 459 kts 182°
2026-04-30 08:25 7.35118 7.13656 36003 ft 463 kts 182°
2026-04-30 08:26 7.28789 7.13089 36024 ft 456 kts 182°
2026-04-30 08:26 7.22474 7.12522 36023 ft 454 kts 182°
2026-04-30 08:27 7.16168 7.11960 36023 ft 454 kts 182°
2026-04-30 08:27 7.09905 7.11401 36022 ft 454 kts 182°
2026-04-30 08:28 7.03601 7.10837 36016 ft 454 kts 182°
2026-04-30 08:28 6.97303 7.10275 36016 ft 454 kts 182°
2026-04-30 08:29 6.91008 7.09502 36015 ft 456 kts 187°
2026-04-30 08:29 6.84741 7.08506 36019 ft 454 kts 183°
2026-04-30 08:30 6.78448 7.07970 36017 ft 454 kts 181°
2026-04-30 08:30 6.72143 7.07570 35951 ft 451 kts 180°
2026-04-30 08:30 6.69067 7.07391 35353 ft 451 kts 180°
2026-04-30 08:31 6.65894 7.07211 34477 ft 460 kts 181°
2026-04-30 08:31 6.62665 7.07026 33558 ft 465 kts 181°
2026-04-30 08:31 6.59453 7.06839 32192 ft 459 kts 181°
2026-04-30 08:31 6.56262 7.06649 30495 ft 458 kts 182°
2026-04-30 08:32 6.53097 7.06453 28665 ft 455 kts 182°
2026-04-30 08:32 6.49946 7.06191 27181 ft 447 kts 183°
2026-04-30 08:32 6.46912 7.05895 26728 ft 433 kts 183°
2026-04-30 08:32 6.43970 7.05600 26330 ft 427 kts 183°
2026-04-30 08:33 6.41023 7.05310 25827 ft 425 kts 183°
2026-04-30 08:33 6.38085 7.05029 25290 ft 423 kts 182°
2026-04-30 08:33 6.35162 7.04756 24753 ft 422 kts 182°
2026-04-30 08:33 6.32240 7.04488 24221 ft 420 kts 182°
2026-04-30 08:34 6.29328 7.04223 23689 ft 419 kts 182°
2026-04-30 08:34 6.26432 7.03961 23101 ft 417 kts 182°
2026-04-30 08:34 6.23548 7.03700 22552 ft 414 kts 182°
2026-04-30 08:34 6.20682 7.03440 22021 ft 411 kts 182°
2026-04-30 08:35 6.17850 7.03182 21503 ft 408 kts 181°
2026-04-30 08:35 6.15026 7.02926 20979 ft 405 kts 181°
2026-04-30 08:35 6.12258 7.02675 20469 ft 402 kts 181°
2026-04-30 08:35 6.09480 7.02427 19929 ft 400 kts 181°
2026-04-30 08:36 6.06703 7.02199 19391 ft 398 kts 181°
2026-04-30 08:36 6.03946 7.01974 18879 ft 396 kts 181°
2026-04-30 08:36 6.01202 7.01749 18359 ft 394 kts 181°
2026-04-30 08:36 5.98479 7.01524 17797 ft 392 kts 181°
2026-04-30 08:37 5.95763 7.01300 17261 ft 388 kts 181°
2026-04-30 08:37 5.93081 7.01078 16754 ft 385 kts 181°
2026-04-30 08:37 5.90422 7.00858 16239 ft 382 kts 181°
2026-04-30 08:37 5.87813 7.00641 15727 ft 380 kts 181°
2026-04-30 08:38 5.85146 7.00421 15209 ft 378 kts 181°
2026-04-30 08:38 5.82568 7.00218 14712 ft 376 kts 180°
2026-04-30 08:38 5.79992 7.00398 14195 ft 369 kts 164°
2026-04-30 08:38 5.77516 7.01057 13665 ft 367 kts 160°
2026-04-30 08:39 5.75071 7.01777 13143 ft 364 kts 160°
2026-04-30 08:39 5.72650 7.02487 12658 ft 361 kts 160°
2026-04-30 08:39 5.70235 7.03190 12162 ft 359 kts 160°
2026-04-30 08:39 5.67842 7.03883 11687 ft 356 kts 160°
2026-04-30 08:40 5.65474 7.04568 11193 ft 353 kts 160°
2026-04-30 08:40 5.63155 7.05237 10712 ft 350 kts 160°
2026-04-30 08:40 5.60823 7.05910 10332 ft 344 kts 160°
2026-04-30 08:40 5.58570 7.06557 10219 ft 329 kts 160°
2026-04-30 08:41 5.56410 7.07177 10116 ft 316 kts 160°
2026-04-30 08:41 5.54336 7.07775 9982 ft 305 kts 160°
2026-04-30 08:41 5.52316 7.08357 9758 ft 298 kts 160°
2026-04-30 08:41 5.50324 7.08904 9419 ft 294 kts 164°
2026-04-30 08:42 5.48305 7.09052 8879 ft 289 kts 178°
2026-04-30 08:42 5.46302 7.08945 8366 ft 289 kts 180°
2026-04-30 08:42 5.44285 7.08814 8004 ft 290 kts 180°
2026-04-30 08:42 5.42278 7.08686 7665 ft 289 kts 181°
2026-04-30 08:43 5.40282 7.08562 7337 ft 287 kts 181°
2026-04-30 08:43 5.38320 7.08443 7013 ft 285 kts 181°
2026-04-30 08:43 5.36344 7.08325 6693 ft 283 kts 181°
2026-04-30 08:43 5.34384 7.08209 6357 ft 282 kts 181°
2026-04-30 08:44 5.32441 7.08094 5947 ft 277 kts 181°
2026-04-30 08:44 5.30541 7.07981 5340 ft 271 kts 181°
2026-04-30 08:44 5.28659 7.07869 4905 ft 271 kts 181°
2026-04-30 08:44 5.26829 7.07758 4647 ft 253 kts 182°
2026-04-30 08:45 5.25148 7.07439 4424 ft 246 kts 195°
2026-04-30 08:45 5.23563 7.06793 3935 ft 246 kts 205°
2026-04-30 08:45 5.22048 7.05988 3370 ft 246 kts 207°
2026-04-30 08:45 5.20547 7.05171 2944 ft 243 kts 208°
2026-04-30 08:46 5.19057 7.04365 2603 ft 244 kts 207°
2026-04-30 08:46 5.17567 7.03566 2359 ft 240 kts 207°
2026-04-30 08:46 5.16130 7.02799 2300 ft 224 kts 207°
2026-04-30 08:46 5.14806 7.02090 2131 ft 209 kts 208°
2026-04-30 08:47 5.13582 7.01433 2064 ft 192 kts 207°
2026-04-30 08:47 5.12470 7.00835 2045 ft 166 kts 208°
2026-04-30 08:47 5.11547 7.00337 1983 ft 142 kts 207°
2026-04-30 08:47 5.10723 6.99892 1802 ft 127 kts 208°
2026-04-30 08:48 5.09966 6.99483 1645 ft 121 kts 207°
2026-04-30 08:48 5.09217 6.99081 1478 ft 122 kts 208°
2026-04-30 08:48 5.08460 6.98673 1361 ft 127 kts 208°
2026-04-30 08:48 5.07673 6.98249 1171 ft 127 kts 208°
2026-04-30 08:49 5.06906 6.97835 1020 ft 124 kts 208°
2026-04-30 08:49 5.06155 6.97431 865 ft 123 kts 208°
2026-04-30 08:49 5.05385 6.97017 692 ft 126 kts 207°
2026-04-30 08:49 5.04613 6.96599 499 ft 126 kts 209°
2026-04-30 08:50 5.03849 6.96173 355 ft 127 kts 207°
2026-04-30 08:50 5.03082 6.95766 215 ft 124 kts 207°
2026-04-30 08:50 5.02313 6.95364 97 ft 123 kts 206°
2026-04-30 08:50 5.01681 6.95035 85 ft 66 kts 210°
2026-04-30 08:51 5.01461 6.94912 81 ft 27 kts 208°
2026-04-30 08:51 5.01296 6.94823 83 ft 27 kts 208°
2026-04-30 08:51 5.01133 6.94741 83 ft 26 kts 203°
2026-04-30 08:51 5.00962 6.94713 80 ft 25 kts 182°
2026-04-30 08:52 5.00859 6.94726 80 ft 0 kts 149°
2026-04-30 08:52 5.00837 6.94751 83 ft 11 kts 125°
2026-04-30 08:52 5.00806 6.94828 83 ft 11 kts 102°
2026-04-30 08:52 5.00821 6.94865 81 ft 5 kts 45°
2026-04-30 08:53 5.00829 6.94871 83 ft 1 kts 37°
2026-04-30 08:53 5.00838 6.94877 83 ft 0 kts 30°